Regional Weather Roundup
Issued by NWS

Home | Current Version | Previous Version | Text Only | Print | Product List | Glossary Off
Versions: 1 2 3 4 5 6 7 8 9 10 11 12 13 14 15 16 17 18 19 20 21 22 23 24 25 26 27 28 29 30 31 32 33 34 35 36 37 38 39 40 41 42 43 44 45 46 47 48 49 50

000
ASUS43 KTOP 031059
RWRKS

WEATHER ROUNDUP FOR KANSAS
NATIONAL WEATHER SERVICE GOODLAND KS
500 AM CST SAT DEC 03 2016

NOTE:  "FAIR" INDICATES FEW OR NO CLOUDS BELOW 12,000 FEET WITH NO
SIGNIFICANT WEATHER AND/OR OBSTRUCTIONS TO VISIBILITY.

KSZ001>006-013>018-027>032-041>047-031200-
NORTHWEST KANSAS

CITY           SKY/WX    TMP DP  RH WIND       PRES   REMARKS
GOODLAND       PTCLDY    28  17  63 S10       30.14F WCI  19
HAYS           LGT RAIN  33  26  75 CALM      30.24F
HILL CITY      CLOUDY    30  25  81 CALM      30.23F
RUSSELL        CLOUDY    33  27  78 CALM      30.23F
$$

KSZ061>065-074>080-084>089-031200-
SOUTHWEST KANSAS

CITY           SKY/WX    TMP DP  RH WIND       PRES   REMARKS
DODGE CITY     LGT SNOW  33  32  96 CALM      30.21F FOG
ELKHART          N/A     31  25  79 NW2         N/A
GARDEN CITY    LGT SNOW  33  31  92 CALM      30.19F FOG
GREAT BEND     LGT RAIN  35  27  72 N5        30.23F
LIBERAL        CLOUDY    34  28  80 N7        30.18F
$$

KSZ066>073-081>083-090>101-031200-
SOUTHEAST KANSAS

CITY           SKY/WX    TMP DP  RH WIND       PRES   REMARKS
CHANUTE        CLOUDY    42  27  55 NE8       30.24F
COFFEYVILLE    CLOUDY    45  30  55 E6        30.22F
HUTCHINSON     CLOUDY    38  27  64 NE3       30.23F
MEDICINE LODGE   N/A     38  30  73 NE6       30.20F
NEWTON         CLOUDY    36  27  69 E10       30.22F WCI  28
PARSONS        PTCLDY    44  29  55 E7        30.23F
WICHITA INTL   CLOUDY    43  27  53 E8        30.21F
WICHITA JABRA  CLOUDY    39  29  67 NE6       30.21F
WINFIELD       CLOUDY    43  29  57 NE5       30.22F
$$

KSZ007>012-019>026-033>040-048>060-102>105-031200-
NORTHEAST KANSAS

CITY           SKY/WX    TMP DP  RH WIND       PRES   REMARKS
CONCORDIA      CLOUDY    29  26  89 SE3       30.27F
EMPORIA        CLOUDY    36  29  75 NE8       30.26F
LAWRENCE       PTCLDY    31  27  85 CALM      30.31F
MANHATTAN      CLOUDY    30  26  85 N5        30.28F
OLATHE IND     CLOUDY    35  29  78 NE5       30.30F
OLATHE EXE     CLOUDY    33  28  81 NE7       30.29F
SALINA         CLOUDY    36  28  73 E3        30.26F
TOPEKA BILLARD CLOUDY    28  24  85 CALM      30.30F
TOPEKA FORBES  MOCLDY    32  27  81 CALM      30.29F
$$



USA.gov is the U.S. government's official web portal to all federal, state and local government web resources and services.